This demonstration page uses our WeatherBlox Daily Observations layout. Learn more.

Left ArrowRight Arrow

Hourly Observations for December 29, 2020

Temp ( °F °C ) Dew Point ( °F °C ) Humidity (%) Winds ( mph kmh ) Pressure ( in mb ) Visibility ( mi km ) Precip ( " mm )
12:54 am 00:54 Cloudy 27 -2.8 17 -8.3 66 66 SE 10 17 30.46 1032 10 16.0934 0 0
1:41 am 01:41 Cloudy with Light Snow 27 -2.8 17 -8.3 66 66 ESE 10 17 30.45 1031 6 9.65604 0.001 0.001
1:54 am 01:54 Cloudy with Light Snow 26 -3.3 18 -7.8 71 71 E 10 17 30.42 1030 2 3.21868 0.001 0.001
2:08 am 02:08 Cloudy with Light Snow 25 -3.9 18 -7.8 75 75 E 8 13 30.45 1031 2 3.21868 0.001 0.001
2:12 am 02:12 Cloudy with Light Snow 25 -3.9 18 -7.8 75 75 E 10 17 30.46 1031 1.75 2.816345 0.001 0.001
2:43 am 02:43 Mostly Cloudy with Snow 24 -4.4 19 -7.2 81 81 E 7 11 30.45 1031 0.5 0.80467 0.02 0.508
2:54 am 02:54 Mostly Cloudy with Snow 23 -5 19 -7.2 85 85 ENE 17 28 30.36 1028 0.5 0.80467 0.04 1.016
3:00 am 03:00 Mostly Cloudy with Heavy Snow 23 -5 20 -6.7 88 88 SSE 9 15 30.45 1031 0.25 0.402335 0.02 0.508
3:13 am 03:13 Cloudy with Light Snow 23 -5 20 -6.7 88 88 SE 9 15 30.44 1031 1 1.60934 0.04 1.016
3:23 am 03:23 Cloudy with Light Snow 23 -5 20 -6.7 88 88 SE 9 15 30.44 1031 1.5 2.41401 0.05 1.27
3:31 am 03:31 Cloudy with Light Snow 24 -4.4 19 -7.2 81 81 SE 9 15 30.43 1031 2.5 4.02335 0.05 1.27
3:42 am 03:42 Cloudy with Light Snow 24 -4.4 20 -6.7 84 84 SE 10 17 30.42 1030 1 1.60934 0.06 1.524
3:54 am 03:54 Cloudy with Light Snow 24 -4.4 20 -6.7 84 84 SE 9 15 30.38 1029 1.5 2.41401 0.08 2.032
4:26 am 04:26 Mostly Cloudy with Light Snow 24 -4.4 20 -6.7 84 84 ESE 10 17 30.39 1029 0.75 1.207005 0.03 0.762
4:47 am 04:47 Cloudy with Light Snow 24 -4.4 20 -6.7 84 84 E 8 13 30.4 1030 1.5 2.41401 0.06 1.524
4:54 am 04:54 Cloudy with Light Snow 24 -4.4 20 -6.7 84 84 ESE 7 11 30.37 1029 2 3.21868 0.06 1.524
4:59 am 04:59 Mostly Cloudy with Light Snow 24 -4.4 20 -6.7 84 84 ESE 7 11 30.4 1030 1 1.60934 0.01 0.254
5:08 am 05:08 Mostly Cloudy with Light Snow 24 -4.4 20 -6.7 84 84 ESE 8 13 30.4 1030 0.75 1.207005 0.02 0.508
5:19 am 05:19 Mostly Cloudy with Light Snow 24 -4.4 20 -6.7 84 84 ESE 8 13 30.39 1029 1 1.60934 0.03 0.762
5:26 am 05:26 Mostly Cloudy with Light Snow 24 -4.4 20 -6.7 84 84 ESE 9 15 30.38 1029 0.75 1.207005 0.04 1.016
5:45 am 05:45 Mostly Cloudy with Light Snow 24 -4.4 20 -6.7 84 84 SE 9 15 30.38 1029 1 1.60934 0.07 1.778
5:54 am 05:54 Cloudy with Light Snow 24 -4.4 20 -6.7 84 84 SE 8 13 30.35 1028 1.25 2.011675 0.08 2.032
6:07 am 06:07 Mostly Cloudy with Light Snow 23 -5 20 -6.7 88 88 ESE 10 17 30.38 1029 0.75 1.207005 0.02 0.508
6:23 am 06:23 Mostly Cloudy with Light Snow 24 -4.4 20 -6.7 84 84 E 9 15 30.35 1028 0.75 1.207005 0.05 1.27
6:27 am 06:27 Mostly Cloudy with Light Snow 24 -4.4 20 -6.7 84 84 ESE 8 13 30.35 1028 1 1.60934 0.05 1.27
6:52 am 06:52 Cloudy with Light Snow 25 -4 19 -7 80 80 ESE 10 17 30.34 1027 1.5 2.41401 0.08 2.032
6:54 am 06:54 Cloudy with Light Snow 24 -4.4 20 -6.7 84 84 ESE 9 15 30.31 1026 1.75 2.816345 0.08 2.032
7:03 am 07:03 Cloudy with Light Snow 24 -4.4 20 -6.7 84 84 ESE 12 19 30.33 1027 2.5 4.02335 0.001 0.001
7:23 am 07:23 Cloudy with Light Snow 24 -4.4 19 -7.2 81 81 ESE 13 20 30.32 1027 3 4.82802 0.01 0.254
7:54 am 07:54 Cloudy with Light Snow 24 -4.4 20 -6.7 84 84 E 9 15 30.27 1025 2 3.21868 0.02 0.508
8:07 am 08:07 Cloudy with Light Snow 24 -4.4 20 -6.7 84 84 ESE 10 17 30.32 1027 2 3.21868 0.001 0.001
8:22 am 08:22 Cloudy with Light Snow 24 -4.4 20 -6.7 84 84 ESE 14 22 30.29 1026 2 3.21868 0.01 0.254
8:54 am 08:54 Cloudy with Light Snow 24 -4.4 20 -6.7 84 84 SE 13 20 30.24 1024 2 3.21868 0.04 1.016
9:01 am 09:01 Cloudy with Light Snow 24 -4.4 20 -6.7 84 84 ESE 13 20 30.25 1024 1.25 2.011675 0.001 0.001
9:16 am 09:16 Cloudy with Light Snow 24 -4.4 20 -6.7 84 84 ESE 12 19 30.26 1025 0.75 1.207005 0.02 0.508
9:27 am 09:27 Cloudy with Light Snow 25 -3.9 20 -6.7 81 81 ESE 15 24 30.24 1024 0.75 1.207005 0.03 0.762
9:54 am 09:54 Mostly Cloudy with Snow 24 -4.4 21 -6.1 88 88 ESE 14 22 30.2 1023 0.5 0.80467 0.07 1.778
10:04 am 10:04 Mostly Cloudy with Heavy Snow 24 -4.4 20 -6.7 84 84 ESE 14 22 30.23 1024 0.25 0.402335 0.01 0.254
10:45 am 10:45 Cloudy with Light Snow 24 -4.4 21 -6.1 88 88 ESE 7 11 30.2 1023 1 1.60934 0.1 2.54
10:54 am 10:54 Cloudy with Light Snow 25 -3.9 21 -6.1 85 85 SE 10 17 30.16 1021 3 4.82802 0.1 2.54
11:14 am 11:14 Cloudy with Light Snow 25 -3.9 21 -6.1 85 85 SE 12 19 30.18 1022 2 3.21868 0.02 0.508
11:54 am 11:54 Cloudy with Light Snow 26 -3.3 22 -5.6 84 84 ESE 7 11 30.11 1020 1.5 2.41401 0.05 1.27
12:04 pm 12:04 Cloudy with Light Snow 25 -3.9 22 -5.6 88 88 ESE 9 15 30.13 1020 0.75 1.207005 0.02 0.508
12:12 pm 12:12 Cloudy with Light Snow 26 -3.3 22 -5.6 84 84 ESE 9 15 30.12 1020 1.75 2.816345 0.03 0.762
12:19 pm 12:19 Cloudy with Light Snow 26 -3.3 22 -5.6 84 84 SE 9 15 30.11 1020 2.5 4.02335 0.03 0.762
12:31 pm 12:31 Cloudy with Light Snow 26 -3.3 22 -5.6 84 84 SE 10 17 30.11 1020 4 6.43736 0.04 1.016
12:51 pm 12:51 Cloudy with Light Snow 27 -3 23 -5 86 86 SE 9 15 30.08 1019 1.75 2.816345 0.04 1.016
12:54 pm 12:54 Cloudy with Light Snow 27 -2.8 23 -5 85 85 SE 12 19 30.04 1017 1.5 2.41401 0.05 1.27
1:02 pm 13:02 Cloudy with Light Snow 27 -2.8 23 -5 85 85 SE 9 15 30.07 1018 3 4.82802 0.01 0.254
1:15 pm 13:15 Cloudy with Light Snow 27 -2.8 23 -5 85 85 SE 9 15 30.05 1018 2.5 4.02335 0.01 0.254
1:40 pm 13:40 Cloudy with Light Snow 28 -2.2 24 -4.4 85 85 ESE 7 11 30.03 1017 4 6.43736 0.02 0.508
1:54 pm 13:54 Cloudy with Light Snow 28 -2.2 24 -4.4 85 85 ESE 7 11 29.99 1016 3 4.82802 0.02 0.508
2:14 pm 14:14 Cloudy with Mist and Fog 28 -2.2 25 -3.9 88 88 SE 6 9 30.01 1016 6 9.65604 0.001 0.001
2:29 pm 14:29 Cloudy with Mist and Fog 29 -1.7 26 -3.3 89 89 SE 7 11 30 1016 4 6.43736 0.001 0.001
2:51 pm 14:51 Cloudy with Mist and Fog 30 -1 27 -3 86 86 SSE 9 15 29.98 1015 2.5 4.02335 0.001 0.001
2:54 pm 14:54 Cloudy with Mist and Fog 30 -1.1 27 -2.8 88 88 SSE 8 13 29.96 1015 2.5 4.02335 0.001 0.001
3:04 pm 15:04 Cloudy with Mist and Fog 30 -1.1 27 -2.8 88 88 SSE 7 11 29.98 1015 3 4.82802 0 0
3:25 pm 15:25 Cloudy with Mist and Fog 31 -0.6 28 -2.2 89 89 SE 6 9 29.97 1015 2.5 4.02335 0 0
3:39 pm 15:39 Cloudy with Mist and Fog 31 -0.6 28 -2.2 89 89 Calm 29.97 1015 4 6.43736 0 0
3:54 pm 15:54 Cloudy 31 -0.6 28 -2.2 89 89 SSE 3 6 29.95 1014 7 11.26538 0 0
4:42 pm 16:42 Cloudy with Mist and Fog 31 -0.6 28 -2.2 89 89 Calm 29.97 1015 2.5 4.02335 0 0
4:54 pm 16:54 Cloudy with Mist and Fog 31 -0.6 28 -2.2 89 89 Calm 29.95 1014 2 3.21868 0 0
5:18 pm 17:18 Cloudy with Mist and Fog 31 -0.6 29 -1.7 92 92 N 6 9 29.97 1015 1.5 2.41401 0 0
5:38 pm 17:38 Cloudy with Mist and Fog 30 -1.1 27 -2.8 88 88 N 7 11 29.98 1015 2 3.21868 0 0
5:54 pm 17:54 Cloudy with Mist and Fog 30 -1.1 27 -2.8 88 88 NNW 7 11 29.96 1015 2.5 4.02335 0 0
6:11 pm 18:11 Cloudy with Mist and Fog 29 -1.7 27 -2.8 92 92 NNW 7 11 29.99 1015 2.5 4.02335 0 0
6:47 pm 18:47 Cloudy with Mist and Fog 29 -1.7 27 -2.8 92 92 NNW 6 9 29.99 1015 3 4.82802 0 0
6:54 pm 18:54 Cloudy with Mist and Fog 29 -1.7 27 -2.8 92 92 NNW 6 9 29.96 1014 3 4.82802 0 0
7:54 pm 19:54 Cloudy with Mist and Fog 29 -1.7 27 -2.8 92 92 NW 3 6 29.97 1015 5 8.0467 0 0
8:25 pm 20:25 Cloudy with Mist and Fog 29 -1.7 27 -2.8 92 92 Calm 30.01 1016 5 8.0467 0 0
8:54 pm 20:54 Cloudy with Mist and Fog 29 -1.7 27 -2.8 92 92 NW 6 9 29.98 1015 4 6.43736 0 0
9:38 pm 21:38 Cloudy with Mist and Fog 30 -1.1 27 -2.8 88 88 WNW 8 13 30.01 1016 6 9.65604 0 0
9:52 pm 21:52 Cloudy 30 -1 27 -3 86 86 WNW 7 11 30.02 1017 8 12.87472 0 0
9:54 pm 21:54 Cloudy 30 -1.1 26 -3.3 85 85 WNW 7 11 30 1016 8 12.87472 0 0
10:54 pm 22:54 Mostly Clear 28 -2.2 24 -4.4 85 85 WNW 12 19 30.01 1016 10 16.0934 0 0
11:54 pm 23:54 Clear 27 -2.8 22 -5.6 81 81 WNW 9 15 30.03 1017 10 16.0934 0 0

Powered by AerisWeather